Weather History for Lydd, United Kingdom

Change the Weather History Date:

Monday, March 17, 2014

  Actual Average (EGMC) Record (EGMC)
Temperature  
Mean Temperature 52 °F -  
Max Temperature 57 °F 50 °F 64 °F (2005)
Min Temperature 48 °F 39 °F 30 °F (2003)
Degree Days  
Heating Degree Days 12    
Growing Degree Days 2 (Base 50)    
Moisture  
Dew Point 47 °F    
Average Humidity 80    
Maximum Humidity 94    
Minimum Humidity 67    
Precipitation  
Precipitation 0.00 in - - ()
Sea Level Pressure  
Sea Level Pressure 30.17 in    
Wind  
Wind Speed 9 mph ()    
Max Wind Speed 20 mph    
Max Gust Speed -    
Visibility 6.2 miles    
Events      
Averages and records for this station are not official NWS values.
T = Trace of Precipitation, MM = Missing Value Source: Averaged Metar Reports

Daily Weather History Graph

Daily Weather History Graph

Search for Another Location

Airport:

Trip Planner

Search our weather history database for the weather conditions in past years. The results will help you decide how hot, cold, wet, or windy it might be!

Date:

Astronomy

Mar. 17, 2014 Rise Set
Actual Time 6:06 AM GMT 6:04 PM GMT
Civil Twilight 5:33 AM GMT 6:36 PM GMT
Nautical Twilight 4:54 AM GMT 7:15 PM GMT
Astronomical Twilight 4:14 AM GMT 7:55 PM GMT
Moon 7:15 PM GMT (3/17) 6:06 AM GMT (3/17)
Length of Visible Light 13h 03m
Length of Day
11h 57m
Waxing Gibbous, 99% of the Moon is Illuminated
Mar 17
Waxing Gibbous
Mar 24
Last Quarter
Mar 30
New
Apr 7
First Quarter
Apr 15
Full

Hourly Weather History & Observations

Time (GMT) Temp. Dew Point Humidity Pressure Visibility Wind Dir Wind Speed Gust Speed Precip Events Conditions
8:20 AM 48.2 °F 46.4 °F 93% 30.21 in 5.6 mi WNW 5.8 mph - N/A   Scattered Clouds
8:50 AM 48.2 °F 46.4 °F 93% 30.21 in 6.2 mi WNW 6.9 mph - N/A   Scattered Clouds
9:20 AM 50.0 °F 48.2 °F 94% 30.21 in 6.2 mi West 8.1 mph - N/A   Scattered Clouds
9:50 AM 53.6 °F 48.2 °F 82% 30.21 in 6.2 mi West 9.2 mph - N/A   Scattered Clouds
10:20 AM 55.4 °F 48.2 °F 77% 30.21 in 6.2 mi WNW 4.6 mph - N/A   Scattered Clouds
10:50 AM 55.4 °F 46.4 °F 72% 30.21 in 6.2 mi West 6.9 mph - N/A   Partly Cloudy
11:20 AM 57.2 °F 48.2 °F 72% 30.18 in 6.2 mi WSW 5.8 mph - N/A   Partly Cloudy
11:50 AM 57.2 °F 46.4 °F 67% 30.18 in 6.2 mi West 5.8 mph - N/A   Mostly Cloudy
12:20 PM 55.4 °F 48.2 °F 77% 30.18 in 6.2 mi SW 9.2 mph - N/A   Mostly Cloudy
12:50 PM 55.4 °F 46.4 °F 72% 30.18 in 6.2 mi SSW 12.7 mph - N/A   Mostly Cloudy
1:20 PM 55.4 °F 48.2 °F 77% 30.18 in 6.2 mi SSW 12.7 mph - N/A   Mostly Cloudy
1:50 PM 57.2 °F 48.2 °F 72% 30.15 in 6.2 mi SW 15.0 mph - N/A   Mostly Cloudy
2:20 PM 55.4 °F 46.4 °F 72% 30.15 in 6.2 mi SW 16.1 mph - N/A   Scattered Clouds
2:50 PM 53.6 °F 48.2 °F 82% 30.15 in 6.2 mi SW 16.1 mph - N/A   Scattered Clouds
3:20 PM 53.6 °F 46.4 °F 77% 30.15 in 6.2 mi SW 17.3 mph - N/A   Scattered Clouds
3:50 PM 53.6 °F 46.4 °F 77% 30.12 in 6.2 mi SW 19.6 mph - N/A   Partly Cloudy
4:20 PM 51.8 °F 46.4 °F 82% 30.12 in 6.2 mi SW 18.4 mph - N/A   Partly Cloudy
4:50 PM 51.8 °F 46.4 °F 82% 30.12 in 6.2 mi SW 18.4 mph - N/A   Partly Cloudy
5:20 PM 50.0 °F 46.4 °F 87% 30.12 in 6.2 mi SW 17.3 mph - N/A   Partly Cloudy
5:50 PM 50.0 °F 46.4 °F 87% 30.12 in 6.2 mi SW 16.1 mph - N/A   Partly Cloudy
6:20 PM 50.0 °F 46.4 °F 87% 30.12 in 6.2 mi SW 16.1 mph - N/A   Partly Cloudy
6:50 PM 50.0 °F 46.4 °F 87% 30.15 in 6.2 mi SW 17.3 mph - N/A   Partly Cloudy